#timestamp,LO_Frequency,Hit,StdDev 
1532761215.2,286047002.3,Y
1532761235.1,286046999.4,P
1532761236.0,286046999.4,N
1532761255.8,286047000.8,N
1532761275.7,286046998.7,N
1532761295.5,286047002.7,N
1532761315.3,286047006.3,Y
1532761335.2,286047009.0,P
1532761355.0,286047007.2,N
1532761355.9,286047007.2,N
1532761375.8,286047003.3,N
1532761395.6,286047003.4,N
1532761415.4,286047001.4,N
1532761435.3,286047001.8,N
1532761455.1,286047004.3,N
1532761475.8,286047001.9,N
1532761495.7,286047001.5,N
1532761515.5,286047004.4,N
1532761535.3,286047001.7,N
1532761555.2,286047001.7,N
1532761575.0,286047001.3,N
1532761575.9,286047001.3,N
1532761595.8,286047001.5,N
1532761615.6,286047003.9,N
1532761635.4,286047004.0,N
1532761655.3,286047004.3,N
1532761675.1,286047003.9,N
1532761695.8,286047003.9,N
1532761715.7,286047004.0,N
1532761735.5,286047003.9,N
1532761755.4,286047004.2,N
1532761775.2,286047003.9,N
1532761795.0,286047004.1,N
1532761795.9,286047004.1,N
1532761815.8,286047004.2,N
1532761835.6,286047003.9,N
1532761855.5,286047003.9,N
1532761875.3,286047004.3,N
1532761895.1,286047004.0,N
1532761915.9,286047004.1,Y
1532761935.7,286046998.5,P
1532761955.5,286046998.4,N
1532761975.4,286046998.1,N
1532761995.2,286046998.7,N
1532762015.1,286046999.0,N
1532762016.0,286046999.0,N
1532762035.8,286046998.4,N
1532762055.6,286046998.7,N
1532762075.5,286046998.3,N
1532762095.3,286046999.4,N
1532762115.2,286046998.1,N
1532762135.9,286046998.8,N
1532762155.7,286046998.9,N
1532762175.6,286046998.8,N
1532762195.4,286046998.4,N
1532762215.2,286046998.2,N
1532762235.1,286046998.1,N
1532762236.0,286047011.9,Y
1532762255.8,286047000.9,P
1532762275.7,286047000.9,N
1532762295.5,286047000.9,N
1532762315.3,286047000.1,N
1532762335.2,286047000.1,N
1532762355.0,286047000.1,N
1532762355.9,286047000.1,N
1532762375.7,286047000.6,N
1532762395.6,286047000.1,N
1532762415.4,286047000.1,N
1532762435.3,286047000.3,N
1532762455.1,286047000.0,N
1532762456.0,286047000.0,N
1532762475.8,286047000.0,N
1532762495.7,286047001.0,N
1532762515.5,286047000.3,N
1532762535.3,286046999.9,N
1532762555.2,286047000.0,N
1532762575.0,286047000.3,N
1532762575.9,286047000.3,N
1532762595.8,286047000.6,N
1532762615.6,286047000.4,N
1532762635.4,286047000.2,N
1532762655.3,286047000.0,N
1532762675.1,286047000.4,N
1532762695.9,286047005.6,Y
1532762715.7,286047004.6,P
1532762735.5,286047001.4,N
1532762755.4,286047002.5,N
1532762775.2,286047001.0,N
1532762795.0,286047001.1,N
1532762795.9,286047001.1,N
1532762815.8,286046998.6,N
1532762835.6,286047001.1,N
1532762855.5,286047000.9,N
1532762875.3,286047000.6,N
1532762895.1,286047000.8,N
1532762915.9,286047000.1,N
1532762935.7,286046999.7,N
1532762955.5,286047002.4,N
1532762975.5,286047002.4,N
1532762995.3,286047002.6,N
1532763015.2,286047001.9,N
1532763035.0,286047002.0,N
1532763035.9,286047002.0,N
1532763055.8,286047001.6,N
1532763075.6,286047002.2,N
1532763095.4,286046999.8,N
1532763115.3,286046999.8,N
1532763135.1,286047000.1,N
1532763155.8,286046999.8,N
1532763175.7,286047002.4,N
1532763195.5,286047000.1,N
1532763215.4,286047002.8,N
1532763235.2,286047002.2,N
1532763255.0,286047002.3,N
1532763255.9,286047002.3,N
1532763275.8,286047002.5,N
1532763295.6,286047002.1,N
1532763315.5,286047002.1,N
1532763335.3,286047002.5,N
1532763355.1,286047002.1,N
1532763375.9,286047002.5,N
1532763395.7,286047002.6,N
1532763415.5,286046999.7,N
1532763435.4,286047002.3,N
1532763455.2,286047000.1,N
1532763475.1,286047002.5,N
1532763476.0,286047002.5,N
1532763495.8,286046999.7,N
1532763515.6,286046999.8,N
1532763535.5,286047000.2,N
1532763555.3,286047000.3,N
1532763575.1,286047000.0,N
1532763595.9,286047000.5,N
1532763615.7,286047000.3,N
1532763635.6,286047000.4,N
1532763655.8,286047002.6,N
1532763675.6,286047002.8,N
1532763695.5,286047002.8,N
1532763715.3,286046999.7,N
1532763735.1,286047000.3,N
1532763755.9,286046999.9,N
1532763775.7,286047000.9,N
1532763795.6,286047000.4,N
1532763815.4,286047000.9,N
1532763835.2,286047000.9,N
1532763855.1,286047000.5,N
1532763856.0,286047000.5,N
1532763875.8,286047000.7,N
1532763895.7,286047000.4,N
1532763915.5,286047001.1,N
1532763935.3,286047000.6,N
1532763955.2,286047000.4,N
1532763975.0,286047000.8,N
1532763975.9,286047000.8,N
1532763995.8,286047002.8,Y
1532764015.6,286047000.5,P
1532764035.4,286047000.7,P
1532764055.3,286047000.3,N
1532764075.1,286047000.1,N
1532764095.8,286047000.5,N
1532764115.7,286046999.7,N
1532764135.5,286047000.4,N
1532764155.4,286047000.4,N
1532764175.2,286046999.7,N
1532764195.0,286046999.7,N
1532764195.9,286046999.7,N
1532764215.8,286047002.4,Y
1532764235.6,286047000.1,P
1532764255.5,286047000.1,N
1532764275.3,286047000.0,N
1532764295.1,286046998.5,Y
1532764315.9,286046998.9,P
1532764335.7,286046998.9,N
1532764355.5,286046999.4,N
1532764375.4,286046998.9,N
1532764395.2,286046999.5,N
1532764415.1,286046996.8,Y
1532764416.0,286046996.8,P
1532764435.8,286046999.4,N
1532764455.7,286046996.5,N
1532764475.5,286046996.6,N
1532764495.3,286046996.6,N
1532764515.2,286046997.4,N
1532764535.9,286046997.4,N
1532764555.7,286046996.7,N
1532764575.6,286046997.5,N
1532764595.4,286046997.5,N
1532764615.3,286046997.9,N
1532764635.1,286046997.5,N
1532764636.0,286046997.5,N
1532764655.8,286046995.9,Y
1532764675.7,286046999.4,P
1532764695.5,286046999.1,N
1532764715.3,286046999.2,N
1532764735.2,286046999.5,N
1532764755.0,286046999.4,N
1532764755.9,286046999.4,N
1532764775.8,286046996.5,Y
1532764795.6,286046998.9,P
